RH
99 100 99 98 96 94 84 88 90 74 86 89 94 92 97 98 100 100 99 99 100 98 96 79 87 41 50 92 93 63 52 49 55 63 62 56 58 54 64 52 67 78 82 94 89 97 98 53 59 68 59 61 62 65
98 98 98 96 86 85 82 78 78 80 80 93 96 100 95 98 91 100 100 100 100 100 98 97 61 45 78 97 88 58 58 49 50 72 90 83 71 86 70 61 51 70 68 79 75 66 46 49 44 44 51 54 61 70
98 99 99 98 92 85 77 80 78 77 79 85 92 97 98 94 99 100 100 100 99 98 97 97 97 97 97 91 80 88 58 36 36 50 63 86 72 70 81 73 76 62 72 84 68 61 61 49 49 51 53 64 72 78
91 94 99 99 97 90 80 77 80 78 75 79 94 97 98 100 100 100 100 100 100 98 97 95 98 96 96 96 96 74 36 38 41 52 55 85 65 57 80 72 78 68 74 80 78 64 57 53 52 56 63 68 75 80
91 94 98 98 99 94 88 82 83 78 74 80 88 98 99 100 100 99 100 99 100 98 95 96 98 96 95 89 68 47 48 37 49 48 79 77 65 75 87 87 95 74 82 86 83 54 56 52 53 60 61 71 77 82
83 87 95 95 94 89 91 82 80 80 79 79 91 95 100 100 98 100 98 98 98 98 96 95 95 97 94 85 78 50 47 39 43 51 71 73 71 67 96 98 64 59 56 51 47 48 53 54 57 56 63 68 78 86
70 70 85 92 90 85 89 86 90 89 83 81 86 97 100 100 100 99 97 96 100 98 96 95 95 96 97 92 88 70 56 60 55 77 78 77 76 82 100 100 60 58 56 59 59 54 54 48 46 55 65 71 77 82
65 71 85 84 88 89 92 94 94 92 87 92 99 100 99 99 98 97 97 98 98 96 96 95 95 96 96 96 95 86 82 75 81 81 81 89 88 91 100 76 62 66 67 64 54 50 49 47 52 57 64 71 78 84
85 81 82 88 91 93 98 99 98 100 97 100 100 100 98 97 97 96 96 96 96 96 95 95 92 92 96 96 94 86 79 93 92 94 86 87 95 99 79 64 65 62 57 52 54 57 55 53 55 59 66 73 78 81
75 78 81 92 90 98 100 99 99 100 99 100 100 96 96 97 96 96 96 95 95 96 96 94 90 94 96 95 96 89 95 97 100 95 94 100 94 63 54 53 49 55 58 55 55 63 58 52 50 56 64 71 75 80
77 75 79 93 93 99 98 99 99 100 100 99 97 96 96 96 95 95 96 95 96 95 96 94 87 93 94 94 91 84 96 96 100 94 92 95 99 77 45 49 56 58 61 60 56 57 54 50 51 57 63 69 75 82
80 75 86 96 93 99 98 99 99 100 99 98 96 95 96 96 96 96 96 96 96 90 98 91 94 95 95 82 86 97 91 93 95 92 96 98 74 51 48 51 58 60 60 59 60 60 58 55 57 59 64 68 72 79
84 80 95 97 98 99 98 100 100 100 99 97 96 96 96 96 96 96 97 98 96 94 97 95 95 95 94 79 93 91 89 95 87 99 91 80 51 48 48 53 60 62 62 58 58 62 61 62 64 67 70 73 72 74
96 88 98 100 99 98 99 99 99 100 98 98 95 95 95 97 97 93 93 89 89 90 94 88 95 93 86 88 92 86 98 90 100 100 84 83 41 44 51 52 57 54 50 54 63 67 66 68 72 76 80 81 81 79
90 99 100 98 91 98 99 99 98 98 98 97 97 95 96 92 96 100 92 87 92 91 83 95 93 83 90 95 89 93 98 99 84 71 74 33 30 45 50 53 53 51 53 60 68 72 75 76 79 85 90 91 93 91
83 97 76 60 89 99 99 98 98 97 97 96 95 95 98 91 97 95 95 96 94 84 71 62 92 88 88 90 90 82 80 69 65 86 34 31 33 44 44 44 48 55 60 68 74 79 82 84 88 89 93 97 96 97
89 90 46 90 99 99 99 98 96 97 96 95 96 96 91 94 95 95 94 95 90 73 86 91 70 72 91 87 84 78 77 71 36 36 35 33 28 32 39 47 54 57 65 72 76 80 86 87 88 91 92 100 98 100
89 61 96 100 99 99 97 97 97 96 95 97 93 98 93 95 96 96 95 94 89 85 86 85 75 92 84 65 72 76 54 52 36 41 41 38 34 36 40 47 57 64 69 69 70 74 76 82 85 91 94 96 98 100
99 99 99 99 99 94 96 96 96 95 97 95 98 96 95 95 96 95 95 96 95 81 61 61 80 80 74 61 56 50 50 42 40 51 45 37 39 43 48 53 57 57 57 62 67 75 82 87 91 92 93 95 96 100
99 98 98 97 96 96 94 95 96 92 96 99 95 96 95 96 96 95 96 95 68 46 61 84 74 38 30 32 32 24 30 32 26 38 42 44 44 42 45 48 51 58 62 66 72 80 85 89 95 94 95 99 100 100
98 97 97 97 94 95 94 92 95 95 97 93 96 96 96 97 96 96 95 95 54 52 74 26 18 18 23 19 26 22 26 19 17 16 22 36 37 42 48 52 56 59 64 70 77 86 92 95 98 97 99 100 100 100
97 97 97 97 95 95 93 94 92 97 93 97 96 95 95 96 96 95 96 85 59 30 23 14 13 16 17 15 15 17 17 23 27 24 27 28 34 39 43 48 56 61 70 79 86 91 97 98 96 96 97 98 100 100
97 96 96 96 84 82 97 96 93 97 94 94 96 96 96 96 96 96 78 55 38 27 19 16 12 14 18 16 16 20 23 26 29 29 30 35 42 47 53 58 64 70 77 83 88 93 96 94 92 100 100 100 100 100
97 96 93 86 80 100 99 96 95 94 94 98 98 95 95 95 93 83 86 59 32 21 18 15 16 14 18 19 21 19 23 33 35 34 37 39 42 49 57 62 66 71 76 79 80 80 81 89 92 96 100 100 100 100
92 94 87 100 92 94 99 100 100 97 98 98 94 93 94 86 88 91 82 47 23 16 18 22 20 18 12 14 21 23 29 32 32 33 37 44 48 52 58 64 65 64 61 61 62 69 76 84 91 96 100 100 100 100
90 84 63 86 97 89 95 96 98 96 97 99 96 92 85 90 98 73 78 38 33 31 24 23 24 22 20 17 16 22 26 33 40 42 43 48 53 56 58 54 50 50 49 51 57 67 77 88 95 99 100 100 100 98
62 73 70 76 77 80 86 83 74 84 94 83 92 95 90 85 69 63 48 50 44 34 30 27 24 19 16 16 22 26 30 35 40 43 47 50 55 52 45 44 46 48 52 56 62 70 82 92 96 100 100 100 99 99
59 62 78 71 68 61 73 87 80 77 80 70 72 77 73 64 65 48 39 34 34 32 29 32 34 30 25 22 23 24 30 36 39 43 50 52 45 42 43 47 53 57 60 63 68 76 87 93 95 98 100 100 100 100
78 69 63 86 83 68 72 76 76 70 67 60 74 72 67 48 40 38 38 37 35 31 28 26 31 31 30 30 31 33 35 34 37 45 45 42 41 44 49 57 62 64 66 69 74 83 94 96 96 99 100 100 100 100
66 59 55 74 73 74 64 60 71 64 59 60 59 48 43 41 39 35 34 34 29 27 26 23 21 22 22 24 28 33 39 44 46 49 42 41 44 50 57 64 68 69 70 73 80 85 92 97 98 100 100 100 100 100
63 49 55 69 81 72 68 63 63 62 65 62 55 59 53 44 36 34 29 28 25 25 24 22 23 26 28 30 33 35 37 42 42 44 45 46 52 58 63 69 72 72 73 79 85 87 89 94 97 98 100 100 100 100
63 63 67 82 77 68 70 71 68 69 68 64 59 52 41 39 32 27 24 24 21 20 22 25 27 31 38 44 43 42 39 43 42 47 50 54 59 65 70 74 75 73 77 82 86 89 91 93 97 99 100 100 100 100
69 65 69 71 74 75 69 69 76 71 69 63 52 44 39 36 31 24 19 21 23 26 28 35 41 43 45 44 42 41 41 42 48 52 56 60 66 71 77 80 74 77 83 88 91 94 97 99 99 98 98 98 99 98
Wind_Speed
28 29 29 27 26 26 27 27 28 28 27 29 29 27 26 28 30 26 29 23 29 12 14 21 17 14 15 16 6 13 7 6 4 4 4 3 3 4 3 4 6 7 6 4 4 4 8 14 6 6 4 4 6 8
28 30 29 27 27 27 26 26 26 27 27 27 27 23 26 32 32 37 31 23 31 16 7 20 21 20 21 19 17 25 5 7 12 3 1 2 2 1 4 3 2 3 6 5 9 5 3 26 6 11 6 7 8 10
30 30 28 28 28 27 26 25 25 27 27 27 27 27 28 28 34 40 33 23 27 16 5 12 15 19 20 21 21 11 9 9 10 6 7 2 2 3 4 5 1 3 5 3 1 3 7 13 14 9 9 8 8 11
31 29 29 28 28 27 27 25 26 26 26 28 27 26 29 29 36 39 32 26 28 8 6 5 12 15 18 19 18 17 7 14 12 9 4 2 2 5 3 2 3 4 9 4 4 3 1 8 13 10 8 9 10 10
30 31 31 30 27 28 27 25 25 25 25 26 27 25 24 33 34 34 29 27 29 11 6 4 8 11 13 12 15 12 9 13 12 5 2 2 4 3 2 1 3 11 6 5 5 9 5 5 12 11 10 8 8 12
31 30 31 27 27 27 26 25 24 25 24 23 24 26 24 35 38 26 10 19 28 20 5 3 3 10 15 14 13 16 15 13 7 5 3 4 4 3 2 3 7 14 13 13 4 9 8 4 7 9 7 8 11 11
29 33 29 27 24 25 26 25 25 24 23 22 26 23 31 41 36 18 8 5 27 23 5 4 1 8 17 19 15 14 13 8 5 5 3 5 4 4 2 4 5 11 15 13 9 8 7 9 5 6 8 10 9 10
28 31 32 26 24 25 24 24 24 24 22 22 22 29 35 30 24 12 8 14 24 10 5 4 1 4 16 6 5 6 6 6 4 5 5 5 6 3 4 11 4 10 13 13 12 9 7 6 7 8 9 9 10 11
25 28 28 24 23 23 24 23 24 22 20 20 33 36 29 17 8 11 18 24 10 5 6 5 5 3 10 5 7 4 4 2 4 3 4 6 2 5 8 10 18 19 15 9 15 10 10 10 9 9 9 10 12 12
24 27 28 22 21 22 23 23 21 16 19 31 34 10 6 7 7 19 12 8 5 2 4 3 8 3 6 3 3 5 2 2 2 2 7 2 4 21 13 11 11 17 17 13 13 12 12 13 11 10 10 11 11 11
22 26 27 23 20 21 22 21 19 25 28 27 10 5 14 25 8 5 5 4 4 1 4 5 5 6 5 1 3 3 3 1 3 2 3 2 3 5 11 23 14 14 17 16 12 11 9 9 9 9 9 9 10 9
20 23 25 20 19 21 21 20 24 26 21 22 12 23 21 5 3 3 3 2 3 3 7 6 7 6 7 4 4 3 3 2 3 7 3 3 4 9 14 16 19 17 18 16 11 9 10 9 8 8 8 8 9 9
20 21 22 18 19 20 23 20 29 33 28 20 7 9 6 4 2 6 7 3 3 9 10 10 4 6 5 2 5 2 3 2 11 2 3 4 4 15 16 16 17 17 15 12 11 10 10 9 8 8 8 8 9 8
20 21 21 21 20 16 22 38 39 34 17 4 8 6 5 4 5 3 1 2 5 12 22 17 8 4 4 2 2 4 1 3 2 1 6 3 18 18 20 18 19 17 12 10 9 10 9 8 8 8 9 10 9 9
20 20 21 20 21 17 33 44 39 32 7 4 4 4 5 3 3 6 11 10 9 24 28 12 7 4 2 3 2 4 2 4 5 5 3 7 19 21 21 21 18 13 10 9 8 8 8 9 9 9 10 10 10 10
18 20 21 17 14 19 49 47 37 15 3 3 2 4 5 3 2 4 8 11 22 27 21 4 3 3 2 4 3 6 7 6 4 3 8 16 21 21 19 16 13 9 9 8 8 7 8 9 10 9 9 10 10 10
16 24 14 20 17 40 50 35 15 3 3 2 1 5 7 2 6 9 12 12 28 22 3 4 4 3 4 2 3 4 5 3 5 12 18 17 18 17 15 13 12 9 8 7 6 6 8 10 10 9 8 9 9 9
19 14 18 28 32 46 30 9 6 4 4 3 2 4 4 3 9 11 11 23 20 14 5 3 8 3 4 5 3 3 8 6 14 17 18 16 15 14 11 9 9 8 6 5 5 7 8 9 9 8 9 8 8 8
12 7 24 37 40 25 6 3 2 5 3 3 7 7 4 4 5 11 16 30 12 9 4 6 2 3 3 6 5 9 17 19 22 21 19 15 12 10 10 10 9 7 5 4 5 5 7 8 8 8 8 8 7 7
16 32 39 36 28 6 5 4 3 6 4 4 5 5 5 3 7 10 19 25 10 4 3 3 4 3 3 2 3 11 21 22 24 22 19 16 13 11 9 7 6 6 6 5 5 6 7 8 8 8 8 8 8 8
40 36 35 29 11 8 6 4 4 4 6 5 11 4 4 7 6 8 9 19 6 5 4 7 7 4 4 5 8 15 19 18 17 12 16 17 13 11 10 9 8 7 6 6 6 7 9 10 9 9 9 8 10 9
28 34 27 11 5 5 6 5 6 7 4 7 5 4 5 4 5 7 9 7 6 11 9 5 4 9 8 10 12 16 15 16 14 10 12 11 13 12 10 9 8 6 6 6 8 8 8 10 10 9 8 7 6 5
33 24 10 3 4 4 4 5 3 2 3 5 4 3 2 3 5 10 5 8 9 12 16 18 9 9 11 14 15 17 17 15 14 12 11 11 10 8 8 7 6 7 7 7 8 8 9 9 8 8 8 8 6 5
24 5 3 3 4 3 5 2 3 4 4 2 2 2 1 2 6 2 3 5 10 15 24 23 18 17 17 19 19 18 17 16 14 13 11 9 8 7 7 6 6 7 6 6 7 8 8 8 9 8 8 7 5 5
5 2 1 3 4 5 3 2 2 2 2 2 3 1 2 5 2 3 3 6 17 22 21 25 23 21 22 22 21 19 18 17 15 12 10 9 8 7 7 6 5 4 4 5 6 6 7 7 7 6 6 5 4 4
4 1 2 4 2 3 4 4 5 4 3 2 2 4 4 2 1 6 3 3 6 10 23 25 29 25 23 21 21 21 18 17 15 13 11 9 7 7 6 4 4 3 3 5 6 6 6 6 5 5 5 5 6 6
4 2 2 4 5 7 3 2 5 3 4 5 4 4 2 3 5 4 3 4 3 5 14 19 22 22 20 21 19 17 15 15 13 10 9 9 7 7 5 4 3 3 5 6 6 6 5 4 4 4 4 4 4 4
3 5 4 7 3 3 4 2 4 5 3 5 10 4 5 5 3 3 3 3 4 7 17 19 19 17 15 17 17 17 16 15 13 11 9 9 8 7 5 4 3 4 6 6 5 5 3 2 1 1 2 3 3 2
3 7 7 3 2 1 2 3 4 4 6 9 3 3 3 3 5 5 3 2 9 17 21 24 25 21 19 18 16 14 11 10 11 12 11 10 8 7 5 3 4 6 6 5 4 2 1 1 2 1 2 2 2 3
3 6 3 2 2 3 2 3 3 5 6 7 3 3 4 4 4 1 5 12 17 20 20 20 20 19 18 17 16 14 13 12 12 10 9 8 8 6 4 3 5 6 5 3 2 2 3 5 5 5 4 5 6 4
6 3 3 2 1 1 2 4 3 3 4 5 5 4 4 3 1 5 12 16 19 20 19 18 18 15 14 13 11 11 11 11 12 12 10 8 6 5 3 4 5 4 3 2 2 2 3 4 4 4 5 5 5 4
2 2 3 2 0 4 7 3 3 2 3 3 3 3 2 1 3 8 14 16 18 19 17 16 14 14 14 12 12 11 10 10 12 11 9 7 5 4 3 4 4 4 3 3 3 3 3 3 4 5 6 6 6 5
4 3 3 4 3 2 3 2 1 1 2 3 3 3 2 2 3 7 15 17 17 16 16 16 17 14 11 10 10 10 9 11 13 11 9 7 5 4 3 4 4 3 3 4 5 5 6 6 6 6 5 5 5 5
Wind_Direction
287 285 286 284 285 287 286 288 286 276 271 269 272 276 278 273 272 269 261 249 221 216 225 209 207 191 158 165 155 151 121 192 155 192 188 214 176 206 131 181 172 171 162 202 174 226 262 157 128 172 186 195 248 264
281 283 287 286 280 281 283 287 288 288 272 271 265 270 273 283 275 268 246 233 219 224 233 210 201 204 212 202 171 167 180 154 171 140 188 107 167 121 162 240 135 225 185 184 187 221 150 180 197 208 262 276 274 274
287 284 284 284 280 277 278 282 288 286 281 265 262 261 272 275 276 274 246 235 207 218 222 201 207 212 203 192 188 158 215 173 181 163 147 159 191 137 169 242 165 247 176 198 51 189 214 205 220 236 243 261 277 293
288 282 282 282 282 278 274 278 280 287 282 268 266 262 270 275 263 264 245 230 213 169 182 219 198 187 194 193 194 197 183 179 165 161 115 134 195 186 210 203 184 197 149 178 265 238 176 219 221 230 240 274 288 292
288 287 282 283 283 279 272 276 280 285 286 275 266 265 269 250 237 258 245 223 211 201 143 155 178 175 165 176 190 182 194 183 159 132 111 177 147 129 16 44 244 191 185 168 223 205 175 185 212 230 266 279 290 304
288 289 288 282 281 282 276 277 276 279 285 279 267 259 261 221 233 219 205 224 217 220 125 148 167 164 148 163 177 165 167 158 142 136 147 150 153 161 133 229 252 210 211 218 210 190 203 230 231 254 260 286 298 299
282 285 287 283 280 284 279 282 282 280 282 280 270 263 223 211 211 197 216 231 202 202 142 92 218 157 146 142 132 136 142 136 132 138 143 145 157 189 156 227 243 215 212 208 208 198 225 243 240 245 281 293 291 298
281 285 289 276 276 277 280 285 284 278 278 273 267 211 193 194 192 211 221 160 172 168 118 112 28 185 165 135 118 138 126 127 138 136 142 154 151 190 250 228 208 193 192 204 208 217 245 248 248 263 274 285 296 302
273 280 289 274 273 276 281 288 285 275 267 231 206 196 177 179 184 172 164 164 146 136 136 126 162 206 176 115 114 114 135 108 140 130 164 150 193 228 224 205 201 197 198 212 210 228 237 248 257 262 271 283 295 302
274 277 290 280 266 277 285 281 278 258 202 200 185 155 168 171 138 154 148 176 211 218 167 139 136 149 175 140 110 118 133 124 142 202 145 171 252 250 239 224 213 205 205 202 192 219 240 255 261 261 273 283 290 297
277 273 281 276 262 279 283 287 218 196 195 177 159 108 134 132 120 163 164 176 178 242 186 135 140 130 173 189 121 137 140 124 120 198 150 251 269 238 215 208 198 201 211 220 230 251 262 261 257 259 268 278 289 295
278 273 281 268 256 281 280 246 223 211 203 191 153 126 138 180 160 171 202 116 203 212 153 136 134 130 130 178 118 147 113 74 179 141 101 254 246 206 185 184 197 201 202 210 234 254 255 254 256 262 271 279 288 297
274 273 283 262 256 288 294 240 223 213 191 139 111 143 165 159 174 189 200 225 185 160 162 153 129 131 129 166 83 126 103 150 127 91 229 231 219 188 184 184 186 191 198 214 237 243 245 251 262 274 281 286 290 302
275 271 277 272 257 282 239 194 200 195 162 158 155 148 208 185 233 191 196 107 130 147 146 141 121 122 137 116 151 98 57 103 100 221 233 235 204 184 184 188 189 190 202 224 230 234 244 256 268 279 285 287 294 300
272 278 277 259 246 284 205 198 184 170 172 148 161 192 203 152 113 133 129 122 120 146 145 120 97 124 135 121 79 112 81 222 212 227 225 198 181 183 185 188 188 193 213 223 232 243 250 260 273 279 282 288 293 297
275 280 260 247 264 299 192 188 175 177 114 118 116 109 127 105 131 139 140 131 151 151 151 156 134 152 154 126 123 207 158 220 230 210 181 168 174 180 183 185 187 203 217 222 235 248 257 269 273 277 282 287 290 294
270 259 250 281 286 195 189 166 166 138 112 100 102 117 146 104 168 167 164 169 166 158 176 153 154 166 110 113 217 196 210 227 188 164 161 167 166 168 169 176 192 212 218 227 247 259 260 267 277 283 289 284 289 289
260 270 290 193 190 165 150 152 147 129 86 98 123 115 122 148 159 161 165 169 166 179 183 205 135 165 190 187 221 217 205 162 149 155 155 155 157 163 169 178 194 201 209 231 247 257 267 274 284 294 291 289 283 282
268 233 184 176 163 146 127 123 116 105 96 112 121 125 122 150 171 174 170 171 167 185 183 165 134 204 221 222 227 173 167 158 155 157 159 159 161 163 173 185 187 193 204 221 241 256 269 284 292 291 292 293 292 285
256 168 168 156 146 105 100 86 109 95 121 144 133 125 125 143 154 164 171 174 176 195 228 203 220 227 222 290 192 183 172 170 163 158 164 169 172 177 181 182 180 192 209 229 251 273 289 297 300 290 291 292 293 291
171 166 163 158 114 79 91 107 85 100 123 105 131 114 96 118 127 153 161 175 203 231 239 233 239 229 205 169 163 165 172 170 172 170 170 173 176 180 183 187 199 215 235 256 275 288 298 307 295 289 290 275 270 283
156 165 158 152 82 81 83 76 111 112 93 130 120 116 132 149 148 156 155 192 235 237 220 233 252 203 185 170 164 161 160 163 172 162 165 170 179 184 191 200 218 240 259 273 281 289 288 293 289 287 286 278 277 276
151 146 135 82 92 68 100 102 99 108 119 162 135 132 154 146 163 153 206 223 240 225 221 229 234 197 183 175 167 166 172 175 174 169 164 162 160 170 190 214 237 256 268 275 277 281 288 288 288 278 277 279 269 267
141 119 107 91 75 125 135 100 110 106 111 152 143 124 198 167 163 215 255 243 228 215 219 223 216 200 188 184 183 183 182 180 185 179 178 179 184 197 220 239 254 260 267 273 282 288 289 284 283 279 272 268 260 261
124 45 117 42 115 114 96 123 130 117 142 169 127 185 203 169 189 230 235 250 219 215 214 209 206 205 204 192 186 185 190 194 197 196 195 199 213 231 243 252 250 251 270 280 283 284 282 282 281 274 260 245 240 249
93 80 111 159 160 134 164 139 177 174 142 148 158 147 163 161 180 240 227 261 245 230 211 203 198 194 198 201 191 192 192 192 194 204 210 220 233 238 225 218 226 243 270 290 294 291 286 279 274 267 253 228 229 268
117 218 137 129 132 133 87 116 145 142 175 183 173 167 151 205 239 248 271 252 246 216 197 201 201 198 193 187 188 190 191 196 201 209 214 214 219 208 201 196 219 266 298 303 300 294 286 278 267 259 247 238 236 257
101 152 149 154 143 163 147 164 171 193 181 161 141 182 194 210 258 318 295 269 233 185 168 170 175 180 184 186 187 189 191 191 194 199 198 197 189 192 187 196 255 300 307 307 303 298 288 277 251 227 219 217 233 274
91 140 139 108 121 135 171 181 180 172 164 172 178 220 247 254 290 302 299 185 151 149 155 159 162 164 164 168 172 177 186 194 198 196 193 186 187 193 196 227 287 304 309 309 304 287 191 156 194 170 287 248 255 301
135 161 111 102 153 215 199 181 186 189 191 195 234 277 276 284 305 263 160 152 150 147 156 162 167 169 175 177 178 181 186 193 193 191 191 190 189 194 211 257 287 299 302 298 273 230 233 241 244 253 250 253 283 292
140 141 99 90 167 226 190 173 169 180 183 206 245 265 283 317 90 158 161 157 154 152 159 164 168 166 175 180 188 196 199 200 194 190 190 193 201 214 241 272 290 293 284 259 244 246 251 254 257 254 247 254 265 278
129 103 132 120 226 142 134 143 173 204 208 222 238 234 240 228 188 172 177 171 167 164 163 168 173 173 174 186 194 197 196 197 195 192 196 201 214 236 262 284 295 285 257 247 256 258 252 253 258 254 253 257 264 271
123 117 102 110 125 219 187 174 213 232 232 237 230 208 227 203 210 189 190 186 180 178 174 176 182 185 195 199 198 196 193 188 191 200 205 211 224 247 271 292 291 259 237 250 259 260 257 259 263 263 259 256 258 265